Location: Potawatomi Wildlife Park
(41.2308°N, 86.1050°W)
Time: 09:39:18
(UTC-04:00)

Daily predictions for brighter satellites

Satellite Brightness Start Highest point End
(mag) Time Altitude Azimuth Time Altitude Azimuth Time Altitude Azimuth
Cosmos 1844 3.8 20:24:25 10° SSW 20:30:10 83° ESE 20:36:00 10° NNE
METEOR-M 4.5 20:27:06 10° S 20:32:25 73° WSW 20:37:46 10° NNW
Resurs 1-3 4.3 20:30:38 10° SE 20:34:35 35° ENE 20:38:35 10° N
Cosmos 2150 Rocket 4.0 20:29:42 10° SSW 20:34:50 89° W 20:40:02 10° NNE
Cosmos 990 Rocket 4.0 20:31:07 10° S 20:36:20 72° ESE 20:41:34 10° NNE
BREEZE-M DEB (TANK) 3.0 20:37:05 10° SSW 20:39:37 48° SE 20:45:14 10° ENE
RESURS DK-1 2.4 20:35:41 10° NNW 20:39:48 63° ENE 20:43:53 10° SE
Cosmos 1898 Rocket 4.2 20:36:42 10° SSW 20:41:56 60° WNW 20:47:10 10° NNE
Envisat 4.4 20:40:20 10° ESE 20:43:59 20° ENE 20:47:39 10° NNE
Cosmos 1674 4.4 20:43:38 10° NE 20:45:53 15° ENE 20:47:22 13° E
Lacrosse 5 1.8 20:43:08 10° SW 20:48:13 83° SE 20:53:18 10° NE
Cosmos 1125 Rocket 4.2 20:46:01 10° SSE 20:50:33 32° E 20:55:08 10° NE
Cosmos 2344 3.7 20:43:34 10° SSW 20:51:14 86° ESE 20:59:49 10° NE
BREEZE-M DEB (TANK) 3.9 20:50:01 10° S 20:52:48 25° ESE 20:59:06 10° ENE
CZ-2D R/B 3.6 20:49:28 10° SE 20:53:08 44° ENE 20:56:51 10° N
FREGAT/IRIS 4.2 20:51:09 10° S 20:54:03 39° W 20:56:57 10° NNW
Geosat 4.2 20:53:01 10° NE 20:57:53 47° ESE 21:02:42 10° S
Cosmos 1805 3.5 20:54:26 10° SSE 20:58:07 44° E 21:01:52 10° NNE
Cosmos 1934 Rocket 4.0 20:52:09 10° S 20:58:17 88° W 21:04:25 10° N
SAR-Lupe-4 4.3 20:55:35 12° SE 20:58:30 33° ENE 21:01:45 10° N
Okean 3 Rocket 3.6 20:55:08 10° N 20:59:27 56° E 21:03:48 10° SSE
Tiangong 1 1.9 20:58:24 10° W 21:01:11 38° SSW 21:03:03 17° SE
HJ-1C 4.0 20:59:54 10° S 21:03:14 59° W 21:06:38 10° NNW
In-Cosmos 22 4.0 20:58:43 10° N 21:04:03 74° E 21:09:19 10° SSE
Cosmos 1437 Rocket 4.4 21:01:13 10° SW 21:04:59 39° WNW 21:08:50 10° N
Abrixas 2.9 21:02:56 10° NW 21:05:41 45° NNE 21:06:57 25° E
Cosmos 1844 Rocket 4.3 21:01:59 10° SW 21:07:14 38° WNW 21:12:30 10° N
SeaSat 1 3.2 21:06:56 10° S 21:11:45 53° WSW 21:16:35 10° NW
SL-27 R/B 3.5 21:08:16 10° NNW 21:11:45 48° WSW 21:15:14 10° S
Cosmos 1470 3.8 21:12:27 23° ESE 21:13:12 25° E 21:16:28 10° NE
USA 186 0.9 21:15:09 50° E 21:15:13 50° ENE 21:17:23 10° N
Cosmos 1340 Rocket 4.1 21:13:38 10° NNE 21:16:51 22° ENE 21:17:07 22° ENE
SAR-Lupe-1 4.2 21:16:03 22° SE 21:18:07 50° ENE 21:21:36 10° N
Cosmos 1833 Rocket 3.1 21:12:48 10° NNW 21:18:10 42° ENE 21:21:14 23° ESE
H-2A R/B (2) 3.7 21:16:40 10° SSW 21:19:00 16° S 21:20:58 14° SE
Meteor 1-29 3.4 21:15:47 10° NNE 21:19:02 37° E 21:21:00 20° SSE
Cosmos 1818 3.6 21:16:02 10° NNW 21:21:30 69° NE 21:25:02 22° SE
Cosmos 2278 Rocket 2.6 21:16:02 10° SSW 21:21:40 68° WNW 21:27:21 10° NNE
Cosmos 1076 Rocket 3.4 21:17:33 10° N 21:21:47 63° E 21:25:13 15° SSE
COSMOS 2487 3.1 21:19:39 10° N 21:23:01 37° ENE 21:23:40 34° E
GP-B 3.2 21:19:20 10° SSE 21:23:38 52° E 21:27:57 10° N
Meteor 1-4 Rocket 2.3 21:21:17 10° S 21:24:44 75° E 21:28:13 10° NNE
Helios 1B rocket 2.3 21:23:03 10° NNE 21:27:10 64° ESE 21:31:15 10° S
Cosmos 1733 3.8 21:27:32 34° E 21:27:32 34° E 21:31:01 10° NNE
Resurs 01 Rocket 2.5 21:23:43 10° S 21:28:00 51° W 21:32:20 10° NNW
CZ-3B DEB 3.5 21:18:32 10° WSW 21:29:10 54° NW 21:34:03 10° NE
Cosmos 1269 Rocket 4.0 21:25:38 10° NNW 21:30:53 64° ENE 21:33:58 25° SE
Cosmos 1544 3.4 21:27:23 10° SSW 21:30:59 66° W 21:34:39 10° N
Cosmos 1766 Rocket 3.6 21:27:30 10° N 21:31:57 59° E 21:34:17 26° SSE
H-2A R/B 4.3 21:30:23 10° SSW 21:34:00 38° W 21:37:42 10° NNW
Cosmos 1758 3.5 21:31:54 10° SSW 21:35:51 73° W 21:39:51 10° N
Cosmos 2297 3.6 21:30:39 10° SSW 21:36:20 74° ESE 21:42:04 10° NNE
Helios 1A 2.9 21:33:37 16° SSE 21:36:51 86° W 21:41:03 10° NNW
Lacrosse 4 Rocket 4.4 21:34:47 10° W 21:37:10 15° NW 21:39:34 10° NNW
ATLAS 5 CENTAUR R/B 2.0 21:32:48 10° S 21:37:11 43° ESE 21:41:13 14° NE
GPS 2-05 Rocket1 4.5 21:36:51 10° SW 21:39:10 23° S 21:39:10 23° S
Cosmos 2100 Rocket 4.0 21:34:57 10° S 21:41:08 59° E 21:47:23 10° NNE
Cosmos 2098 Rocket 4.4 21:35:33 10° S 21:42:42 86° W 21:50:23 10° N
Cosmos 1953 2.8 21:40:34 10° SSW 21:44:35 63° W 21:48:38 10° N
Cosmos-2242 2.8 21:44:00 22° S 21:46:40 69° E 21:50:55 10° NNE
Cosmos 1939 Rocket 2.9 21:46:50 52° SE 21:47:34 64° ENE 21:51:42 10° N
Cosmos 2082 Rocket 2.1 21:46:13 10° NNW 21:51:57 87° ENE 21:54:34 34° SSE
Cosmos 372 Rocket 3.8 21:47:36 10° SSW 21:52:43 88° ESE 21:57:54 10° NNE
Cosmos 1867 3.6 21:51:24 10° SW 21:56:51 82° WNW 22:02:22 10° NNE
Cosmos 1802 Rocket 3.8 21:56:20 17° S 22:01:05 67° E 22:07:12 10° NNE
Cosmos 1271 Rocket 2.7 22:00:43 57° SSW 22:01:30 86° W 22:05:33 10° N
USA 215 3.1 21:55:06 10° NE 22:01:40 76° SE 22:08:10 10° SW
Cosmos 158 Rocket 4.0 21:57:42 10° NNW 22:02:50 81° WSW 22:04:41 41° S
CZ-4B DEB 3.8 22:03:42 42° W 22:03:42 42° W 22:06:35 10° NNW
Cosmos 1743 Rocket 3.7 21:59:13 10° N 22:03:13 57° NE 22:03:13 57° NE
Cosmos 1500 Rocket 4.5 22:01:33 10° N 22:04:27 34° NE 22:04:27 34° NE
Lacrosse 5 rocket 2.1 22:03:34 10° NW 22:06:37 38° N 22:06:37 38° N
ARGOS 4.1 22:10:26 32° NE 22:10:26 32° NE 22:14:27 10° N
MetOp-A 4.5 22:11:08 47° ENE 22:11:08 47° ENE 22:16:01 10° N
Cosmos 2061 Rocket 4.0 22:06:26 10° S 22:12:49 89° E 22:19:18 10° N
Cosmos 494 Rocket 4.4 22:12:14 10° N 22:16:35 47° NE 22:16:35 47° NE
Timation 2 Rocket 4.0 22:11:52 10° NNW 22:18:11 74° WSW 22:20:08 45° S
Cosmos 1674 4.2 22:18:11 10° NNW 22:21:37 33° W 22:22:20 31° WSW
H-2A R/B 3.6 22:24:05 23° NE 22:24:05 23° NE 22:26:53 10° N
Envisat 3.7 22:20:13 28° SSW 22:22:37 50° W 22:27:34 10° NNW
Lacrosse 5 3.9 22:27:35 10° W 22:31:44 24° NNW 22:35:52 10° NNE
YAOGAN 6 4.4 22:34:08 29° NNW 22:34:08 29° NNW 22:36:08 10° NNW
USA 267 3.8 22:32:47 41° ENE 22:33:58 45° NNE 22:40:08 10° NW
SPOT 5 3.5 22:35:43 52° NNE 22:35:43 52° NNE 22:39:57 10° N
ERS-1 Rocket 3.4 22:43:25 58° W 22:43:25 58° W 22:48:20 10° NNW
Cosmos 1864 Rocket 4.4 22:45:00 81° NE 22:45:00 81° NE 22:51:06 10° N
Terra 4.2 23:00:29 15° NNE 23:00:29 15° NNE 23:01:28 10° N
Cosmos 1833 Rocket 4.3 22:57:11 10° NW 23:01:50 27° WSW 23:02:59 25° WSW
Cosmos 2251 Rocket 4.5 23:03:05 10° NNW 23:07:00 45° NW 23:07:00 45° NW
MOS 1-B Rocket 4.5 23:11:20 79° NE 23:11:20 79° NE 23:18:12 10° NNW
ATLAS 5 CENTAUR R/B 3.7 23:17:55 10° W 23:22:02 27° NW 23:26:28 10° NNE
CZ-3B DEB 4.5 23:38:58 10° NW 23:41:49 14° NNW 23:41:56 14° NNW
USA 215 4.4 23:38:23 10° NE 23:44:21 39° NNW 23:50:17 10° W
